TimeMST,TemperatureF,Dew PointF,Humidity,Sea Level PressureIn,VisibilityMPH,Wind Direction,Wind SpeedMPH,Gust SpeedMPH,PrecipitationIn,Events,Conditions,WindDirDegrees,DateUTC
12:53 AM,30.0,12.9,49,30.20,10.0,West,8.1,-,N/A,,Overcast,260,2013-02-24 07:53:00
1:53 AM,28.9,12.9,51,30.21,10.0,West,11.5,-,N/A,,Overcast,270,2013-02-24 08:53:00
2:53 AM,26.1,12.0,55,30.22,10.0,WSW,5.8,-,N/A,,Partly Cloudy,250,2013-02-24 09:53:00
3:53 AM,28.0,12.9,53,30.25,10.0,West,9.2,18.4,N/A,,Partly Cloudy,280,2013-02-24 10:53:00
4:53 AM,27.0,12.9,56,30.27,10.0,West,4.6,-,N/A,,Overcast,280,2013-02-24 11:53:00
5:53 AM,25.0,12.9,60,30.30,10.0,WNW,3.5,-,N/A,,Clear,300,2013-02-24 12:53:00
6:53 AM,24.1,12.9,62,30.30,10.0,West,4.6,-,N/A,,Clear,260,2013-02-24 13:53:00
7:53 AM,24.1,12.9,62,30.30,10.0,Calm,Calm,-,N/A,,Clear,0,2013-02-24 14:53:00
8:53 AM,30.0,12.9,49,30.30,10.0,Calm,Calm,-,N/A,,Clear,0,2013-02-24 15:53:00
9:53 AM,33.1,12.0,42,30.28,10.0,West,15.0,19.6,N/A,,Partly Cloudy,270,2013-02-24 16:53:00
10:53 AM,36.0,12.0,37,30.27,10.0,WNW,13.8,-,N/A,,Mostly Cloudy,300,2013-02-24 17:53:00
11:53 AM,36.0,12.0,37,30.25,10.0,West,17.3,24.2,N/A,,Mostly Cloudy,260,2013-02-24 18:53:00
12:53 PM,37.0,10.9,34,30.22,10.0,West,19.6,29.9,N/A,,Scattered Clouds,260,2013-02-24 19:53:00
1:53 PM,37.9,10.9,33,30.19,10.0,WSW,18.4,28.8,N/A,,Scattered Clouds,250,2013-02-24 20:53:00
2:53 PM,39.0,10.9,32,30.18,10.0,West,24.2,32.2,N/A,,Partly Cloudy,270,2013-02-24 21:53:00
3:53 PM,39.0,10.9,32,30.17,10.0,West,15.0,23.0,N/A,,Partly Cloudy,270,2013-02-24 22:53:00
4:53 PM,37.0,12.0,36,30.18,10.0,West,10.4,-,N/A,,Clear,280,2013-02-24 23:53:00
5:53 PM,34.0,12.9,42,30.19,10.0,WNW,8.1,-,N/A,,Clear,300,2013-02-25 00:53:00
6:53 PM,32.0,14.0,48,30.21,10.0,West,12.7,16.1,N/A,,Clear,270,2013-02-25 01:53:00
7:53 PM,34.0,12.9,42,30.20,10.0,West,15.0,21.9,N/A,,Clear,260,2013-02-25 02:53:00
8:53 PM,34.0,12.9,42,30.19,10.0,WSW,16.1,23.0,N/A,,Clear,240,2013-02-25 03:53:00
9:53 PM,32.0,14.0,48,30.18,10.0,SW,6.9,-,N/A,,Clear,230,2013-02-25 04:53:00
10:53 PM,32.0,14.0,48,30.17,10.0,SSW,9.2,-,N/A,,Overcast,210,2013-02-25 05:53:00
11:53 PM,30.0,14.0,51,30.17,10.0,SSE,3.5,-,N/A,,Clear,160,2013-02-25 06:53:00